Weather History for Pine Belt, MS

Change the Weather History Date:

Wednesday, December 5, 2012

  Actual Average Record
Temperature  
Mean Temperature 63 °F -  
Max Temperature 66 °F 61 °F 80 °F (2013)
Min Temperature 60 °F 41 °F 21 °F (2006)
Degree Days  
Heating Degree Days 2    
Growing Degree Days 13 (Base 50)    
Moisture  
Dew Point 59 °F    
Average Humidity 89    
Maximum Humidity 94    
Minimum Humidity 83    
Precipitation  
Precipitation 0.00 in - - ()
Sea Level Pressure  
Sea Level Pressure 30.13 in    
Wind  
Wind Speed 3 mph (NNE)    
Max Wind Speed 9 mph    
Max Gust Speed -    
Visibility 6 miles    
Events      
Averages and records for this station are not official NWS values.
T = Trace of Precipitation, MM = Missing Value Source: NWS Daily Summary

Daily Weather History Graph

Daily Weather History Graph

Search for Another Location

Airport:

Trip Planner

Search our weather history database for the weather conditions in past years. The results will help you decide how hot, cold, wet, or windy it might be!

Date:

Astronomy

Dec. 05, 2012 Rise Set
Actual Time 6:42 AM CST 4:53 PM CST
Civil Twilight 6:15 AM CST 5:20 PM CST
Nautical Twilight 5:45 AM CST 5:50 PM CST
Astronomical Twilight 5:16 AM CST 6:20 PM CST
Moon 11:24 PM CST (12/5) 11:22 AM CST (12/5)
Length of Visible Light 11h 04m
Length of Day
10h 11m
Waning Gibbous, 59% of the Moon is Illuminated
Dec 5
Waning Gibbous
Dec 6
Last Quarter
Dec 13
New
Dec 19
First Quarter
Dec 28
Full

Hourly Weather History & Observations

Time (CST) Temp. Dew Point Humidity Pressure Visibility Wind Dir Wind Speed Gust Speed Precip Events Conditions
12:15 AM 62.6 °F 60.8 °F 94% 30.16 in 1.0 mi Calm Calm - N/A   Overcast
12:35 AM 62.6 °F 60.8 °F 94% 30.16 in 1.5 mi North 3.5 mph - N/A   Overcast
12:55 AM 62.6 °F 60.8 °F 94% 30.17 in 2.0 mi North 3.5 mph - N/A   Overcast
1:15 AM 62.6 °F 59.0 °F 88% 30.18 in 8.0 mi WNW 3.5 mph - N/A   Overcast
1:55 AM 60.8 °F 59.0 °F 94% 30.16 in 8.0 mi NNE 4.6 mph - N/A   Overcast
2:15 AM 60.8 °F 59.0 °F 94% 30.16 in 5.0 mi Calm Calm - N/A   Overcast
2:35 AM 60.8 °F 59.0 °F 94% 30.17 in 5.0 mi Calm Calm - N/A   Mostly Cloudy
2:55 AM 60.8 °F 59.0 °F 94% 30.16 in 3.0 mi Calm Calm - N/A   Overcast
3:15 AM 60.8 °F 59.0 °F 94% 30.16 in 3.0 mi Calm Calm - N/A   Mostly Cloudy
3:35 AM 60.8 °F 59.0 °F 94% 30.16 in 2.5 mi Calm Calm - N/A   Mostly Cloudy
3:55 AM 60.8 °F 59.0 °F 94% 30.16 in 2.5 mi ESE 4.6 mph - N/A   Overcast
4:15 AM 60.8 °F 59.0 °F 94% 30.15 in 1.8 mi North 4.6 mph - N/A   Overcast
4:35 AM 60.8 °F 59.0 °F 94% 30.14 in 1.8 mi NNE 3.5 mph - N/A   Overcast
4:55 AM 60.8 °F 57.2 °F 88% 30.15 in 2.0 mi Calm Calm - N/A   Overcast
5:15 AM 60.8 °F 57.2 °F 88% 30.15 in 0.5 mi Calm Calm - N/A   Overcast
5:35 AM 60.8 °F 57.2 °F 88% 30.15 in 0.5 mi Calm Calm - N/A   Mostly Cloudy
5:55 AM 60.8 °F 57.2 °F 88% 30.16 in 4.0 mi North 3.5 mph - N/A   Mostly Cloudy
6:15 AM 60.8 °F 57.2 °F 88% 30.16 in 7.0 mi Calm Calm - N/A   Overcast
6:35 AM 60.8 °F 57.2 °F 88% 30.16 in 7.0 mi Calm Calm - N/A   Overcast
6:55 AM 60.8 °F 57.2 °F 88% 30.17 in 1.8 mi Calm Calm - N/A   Overcast
8:35 AM 60.8 °F 57.2 °F 88% 30.19 in 9.0 mi North 6.9 mph - N/A   Overcast
8:55 AM 60.8 °F 57.2 °F 88% 30.20 in 7.0 mi North 4.6 mph - N/A   Overcast
9:15 AM 60.8 °F 57.2 °F 88% 30.20 in 7.0 mi North 6.9 mph - N/A   Overcast
9:35 AM 60.8 °F 57.2 °F 88% 30.20 in 3.0 mi North 4.6 mph - N/A   Overcast
10:15 AM 60.8 °F 59.0 °F 94% 30.19 in 1.5 mi NE 3.5 mph - N/A   Overcast
10:35 AM 62.6 °F 59.0 °F 88% 30.18 in 1.2 mi NNE 4.6 mph - N/A   Overcast
10:55 AM 62.6 °F 60.8 °F 94% 30.17 in 3.0 mi North 3.5 mph - N/A   Overcast
11:15 AM 62.6 °F 60.8 °F 94% 30.16 in 10.0 mi NE 3.5 mph - N/A   Overcast
11:35 AM 64.4 °F 60.8 °F 88% 30.15 in 10.0 mi NNE 4.6 mph - N/A   Overcast
11:55 AM 64.4 °F 60.8 °F 88% 30.14 in 10.0 mi North 5.8 mph - N/A   Overcast
12:16 PM 66.2 °F 60.8 °F 83% 30.13 in 10.0 mi North 5.8 mph - N/A   Overcast
12:35 PM 66.2 °F 60.8 °F 83% 30.12 in 10.0 mi North 5.8 mph - N/A   Overcast
12:55 PM 64.4 °F 60.8 °F 88% 30.11 in 10.0 mi NNW 8.1 mph - N/A   Overcast
1:15 PM 64.4 °F 60.8 °F 88% 30.11 in 10.0 mi North 4.6 mph - N/A   Mostly Cloudy
1:35 PM 66.2 °F 60.8 °F 83% 30.10 in 10.0 mi North 3.5 mph - N/A   Mostly Cloudy
1:55 PM 66.2 °F 60.8 °F 83% 30.09 in 10.0 mi Calm Calm - N/A   Mostly Cloudy
2:15 PM 66.2 °F 62.6 °F 88% 30.09 in 10.0 mi North 4.6 mph - N/A   Scattered Clouds
2:35 PM 66.2 °F 62.6 °F 88% 30.09 in 10.0 mi NNE 5.8 mph - N/A   Scattered Clouds
2:55 PM 66.2 °F 60.8 °F 83% 30.08 in 10.0 mi North 8.1 mph - N/A   Mostly Cloudy
3:15 PM 66.2 °F 60.8 °F 83% 30.08 in 10.0 mi North 8.1 mph - N/A   Mostly Cloudy
3:35 PM 66.2 °F 60.8 °F 83% 30.08 in 10.0 mi North 9.2 mph - N/A   Mostly Cloudy
3:55 PM 66.2 °F 60.8 °F 83% 30.08 in 10.0 mi North 8.1 mph - N/A   Mostly Cloudy
4:15 PM 64.4 °F 60.8 °F 88% 30.09 in 10.0 mi North 6.9 mph - N/A   Scattered Clouds
4:35 PM 64.4 °F 60.8 °F 88% 30.09 in 10.0 mi North 9.2 mph - N/A   Scattered Clouds
4:55 PM 64.4 °F 60.8 °F 88% 30.09 in 10.0 mi North 6.9 mph - N/A   Mostly Cloudy
5:15 PM 62.6 °F 60.8 °F 94% 30.09 in 8.0 mi North 6.9 mph - N/A   Mostly Cloudy
5:35 PM 62.6 °F 60.8 °F 94% 30.09 in 7.0 mi NNE 5.8 mph - N/A   Mostly Cloudy
6:15 PM 62.6 °F 60.8 °F 94% 30.10 in 6.0 mi NNE 5.8 mph - N/A   Partly Cloudy
6:35 PM 62.6 °F 60.8 °F 94% 30.10 in 7.0 mi NE 4.6 mph - N/A   Partly Cloudy
6:55 PM 62.6 °F 59.0 °F 88% 30.10 in 6.0 mi North 5.8 mph - N/A   Partly Cloudy
7:15 PM 62.6 °F 59.0 °F 88% 30.10 in 5.0 mi North 5.8 mph - N/A   Mostly Cloudy
7:35 PM 62.6 °F 59.0 °F 88% 30.11 in 5.0 mi North 5.8 mph - N/A   Overcast
7:55 PM 62.6 °F 59.0 °F 88% 30.11 in 5.0 mi North 6.9 mph - N/A   Overcast
8:15 PM 62.6 °F 59.0 °F 88% 30.11 in 5.0 mi NNE 5.8 mph - N/A   Overcast
8:35 PM 62.6 °F 59.0 °F 88% 30.11 in 5.0 mi North 6.9 mph - N/A   Overcast
8:55 PM 62.6 °F 59.0 °F 88% 30.11 in 5.0 mi NNE 4.6 mph - N/A   Overcast
9:15 PM 62.6 °F 59.0 °F 88% 30.10 in 5.0 mi Calm Calm - N/A   Overcast
9:35 PM 62.6 °F 59.0 °F 88% 30.10 in 6.0 mi ENE 3.5 mph - N/A   Overcast
9:55 PM 62.6 °F 59.0 °F 88% 30.09 in 6.0 mi ENE 3.5 mph - N/A   Overcast
10:15 PM 62.6 °F 59.0 °F 88% 30.10 in 5.0 mi NE 4.6 mph - N/A   Overcast
10:35 PM 62.6 °F 59.0 °F 88% 30.09 in 5.0 mi NNE 4.6 mph - N/A   Overcast
11:15 PM 62.6 °F 59.0 °F 88% 30.09 in 4.0 mi ENE 3.5 mph - N/A   Overcast
11:35 PM 62.6 °F 59.0 °F 88% 30.08 in 4.0 mi ENE 3.5 mph - N/A   Overcast
11:55 PM 60.8 °F 57.2 °F 88% 30.07 in 4.0 mi NNE 5.8 mph - N/A   Mostly Cloudy